Regional Weather Roundup
Issued by NWS

Home | Current Version | Previous Version | Text Only | Print | Product List | Glossary On
Versions: 1 2 3 4 5 6 7 8 9 10 11 12 13 14 15 16 17 18 19 20 21 22 23 24 25 26 27 28 29 30 31 32 33 34 35 36 37 38 39 40 41 42 43 44 45 46 47 48 49 50
945
ASUS43 KLSX 222110
RWRMO

WEATHER SUMMARY FOR MISSOURI
NATIONAL WEATHER SERVICE SPRINGFIELD MO
400 PM CDT THU JUN 22 2017

NOTE: "FAIR" INDICATES FEW OR NO CLOUDS BELOW 12,000 FEET WITH NO
       SIGNIFICANT WEATHER AND/OR OBSTRUCTIONS TO VISIBILITY.
       CURRENT SKY AND/OR WEATHER CONDITIONS ARE NOT AVAILABLE FOR
       CHILLICOTHE AND FARMINGTON.

MOZ001>031-035>038-043-044-053-054-222200-
...NORTHERN AND WESTERN MISSOURI...

CITY           SKY/WX    TMP DP  RH WIND       PRES   REMARKS
KANSAS CTY INT PTSUNNY   85  73  67 S13       29.69F HX  91
KANSAS C DTWN  PTSUNNY   87  72  60 S10G24    29.67F HX  93
LEE`S SUMMIT   CLOUDY    85  72  65 SW18      29.70F HX  91
ST JOSEPH      SUNNY     89  72  56 S15       29.66F HX  96
CHILLICOTHE      N/A     86  73  65 SE9       29.70F HX  93
KIRKSVILLE     PTSUNNY   86  73  65 S16       29.74F HX  93

$$
MOZ066>068-077>081-088>096-101>105-222200-
...SOUTHWEST MISSOURI...

CITY           SKY/WX    TMP DP  RH WIND       PRES   REMARKS
SPRINGFIELD    PTSUNNY   85  74  69 S8        29.72F HX  92
JOPLIN         CLOUDY    89  74  60 CALM      29.71F HX  98
BRANSON        PTSUNNY   84  72  65 SE8       29.76F

$$
MOZ032>034-039>042-045>050-055>058-069>072-222200-
...CENTRAL MISSOURI...

CITY           SKY/WX    TMP DP  RH WIND       PRES   REMARKS
COLUMBIA       CLOUDY    84  74  71 SW8       29.74F HX  91
JEFFERSON CITY CLOUDY    85  71  63 S12       29.72F HX  90
ROLLA          PTSUNNY   84  73  69 SE9       29.75F HX  90
SEDALIA        CLOUDY    85  76  74 S8        29.73F HX  94
WHITEMAN AFB   PTSUNNY   83  76  80 S7        29.70F HX  92
WARRENSBURG    CLOUDY    82  70  65 S9        29.70F
OSAGE BEACH    CLOUDY    84  72  67 S9        29.74F

$$
MOZ051-052-059>065-222200-
...EAST CENTRAL MISSOURI...

CITY           SKY/WX    TMP DP  RH WIND       PRES   REMARKS
ST LOUIS INTL  PTSUNNY   85  71  63 SE9       29.77F HX  90
SPIRIT OF STL  PTSUNNY   84  73  69 SE8       29.74F HX  90
ST CHARLES     PTSUNNY   85  72  65 MISG      29.75F HX  91

$$
MOZ072>076-082>087-097>100-106>115-222200-
...SOUTH CENTRAL AND SOUTHEAST MISSOURI...

CITY           SKY/WX    TMP DP  RH WIND       PRES   REMARKS
CAPE GIRARDEAU CLOUDY    80  74  81 SE9       29.78F
FARMINGTON     CLOUDY    82  74  76 S9        29.79F
POPLAR BLUFF   MOSUNNY   85  76  74 SE6       29.75F HX  94
WEST PLAINS    CLOUDY    84  71  65 S9G17     29.78F

$$




USA.gov is the U.S. government's official web portal to all federal, state and local government web resources and services.